Powrót do katalogu

DELTA 1 DEB

AktywnyPO
NORAD 21677·DEBRIS·🇺🇸 United States

Wystrzelony Jun 12, 1975 z Vandenberg Space Force Base

Loading…

Następne Przeloty (najbliższe 24 godziny)

TLE

ŚwieżeSource: Space-Track

Epoka: Sep 14, 2026, 07:15 UTC

1 21677U 75052JD  26257.30266633  .00000019  00000-0  17642-3 0  9996
2 21677  99.9302  16.9426 0477581 349.9152  34.6987 12.71925889639344

Śledź DELTA 1 DEB w czasie rzeczywistym z AllMySat

Download on the App Store